When you browse on this site, cookies collect data to enhance your experience and personalize the content and advertising you see.
Visit our Privacy Policy to learn more. By continuing to use the site, you agree to this use of cookies and data.
  • In Deutschland
  • Länderverzeichnis
  • Für 7 Tage
  • Wassertemperatur
  • Wetterkarte
  • Widgets
  • user-avatar
    Anmelden

    Stündliche Wetter Innsbruck

    Heute, 5 Juni, Freitag

    Zeit Temperatur Niederschläge Wind Luftdruck Luftfeuchtigkeit
    00:00 +2°C° 3.6 mm 1 m/S 584 mmHg 97%
    01:00 +2°C° 0 mm 1 m/S 583 mmHg 98%
    02:00 +1°C° 1 mm 1 m/S 583 mmHg 98%
    03:00 +1°C° 1 mm 1 m/S 583 mmHg 98%
    04:00 +1°C° 1 mm 1 m/S 583 mmHg 97%
    05:00 +2°C° 0.4 mm 1 m/S 584 mmHg 97%
    06:00 +2°C° 0.4 mm 1 m/S 584 mmHg 97%
    07:00 +3°C° 0 mm 1 m/S 585 mmHg 97%
    08:00 +3°C° 0.3 mm 1 m/S 585 mmHg 96%
    09:00 +4°C° 0.3 mm 1 m/S 585 mmHg 94%
    10:00 +4°C° 0.3 mm 1 m/S 586 mmHg 93%
    11:00 +6°C° 0.1 mm 1 m/S 586 mmHg 87%
    12:00 +7°C° 0.1 mm 1 m/S 587 mmHg 81%
    13:00 +8°C° 0.1 mm 1 m/S 588 mmHg 75%
    14:00 +8°C° 0.1 mm 1 m/S 588 mmHg 74%
    15:00 +9°C° 0.1 mm 1 m/S 588 mmHg 74%
    16:00 +9°C° 0.1 mm 1 m/S 588 mmHg 73%
    17:00 +8°C° 0.1 mm 1 m/S 588 mmHg 78%
    18:00 +7°C° 0.1 mm 1 m/S 588 mmHg 84%
    19:00 +7°C° 0.1 mm 1 m/S 588 mmHg 89%
    20:00 +5°C° 0 mm 1 m/S 588 mmHg 89%
    21:00 +4°C° 0 mm 1 m/S 588 mmHg 89%
    22:00 +3°C° 0 mm 1 m/S 588 mmHg 89%
    23:00 +3°C° 0 mm 1 m/S 588 mmHg 89%

    Morgen, 6 Juni, Samstag

    Zeit Temperatur Niederschläge Wind Luftdruck Luftfeuchtigkeit
    00:00 +3°C° 0 mm 1 m/S 588 mmHg 89%
    01:00 +3°C° 0 mm 1 m/S 588 mmHg 89%
    02:00 +3°C° 0 mm 1 m/S 588 mmHg 89%
    03:00 +2°C° 0 mm 2 m/S 588 mmHg 90%
    04:00 +2°C° 0 mm 2 m/S 588 mmHg 91%
    05:00 +4°C° 0 mm 1 m/S 589 mmHg 89%
    06:00 +5°C° 0 mm 1 m/S 590 mmHg 88%
    07:00 +7°C° 0 mm 1 m/S 590 mmHg 86%
    08:00 +8°C° 0.1 mm 1 m/S 591 mmHg 83%
    09:00 +9°C° 0.1 mm 1 m/S 592 mmHg 80%
    10:00 +9°C° 0.1 mm 2 m/S 592 mmHg 76%
    11:00 +10°C° 0.5 mm 2 m/S 592 mmHg 76%
    12:00 +10°C° 0.5 mm 2 m/S 592 mmHg 76%
    13:00 +10°C° 0.5 mm 2 m/S 592 mmHg 76%
    14:00 +10°C° 0.9 mm 2 m/S 592 mmHg 79%
    15:00 +10°C° 0.9 mm 2 m/S 592 mmHg 83%
    16:00 +9°C° 0.9 mm 2 m/S 591 mmHg 86%
    17:00 +9°C° 1.3 mm 1 m/S 591 mmHg 90%
    18:00 +8°C° 1.3 mm 1 m/S 591 mmHg 94%
    19:00 +7°C° 1.3 mm 1 m/S 590 mmHg 97%
    20:00 +7°C° 0.9 mm 1 m/S 591 mmHg 98%
    21:00 +6°C° 0.9 mm 1 m/S 591 mmHg 98%
    22:00 +6°C° 0.9 mm 1 m/S 591 mmHg 98%
    23:00 +6°C° 0.2 mm 1 m/S 591 mmHg 98%

    übermorgen, 7 Juni, Sonntag

    Zeit Temperatur Niederschläge Wind Luftdruck Luftfeuchtigkeit
    00:00 +5°C° 0.2 mm 1 m/S 590 mmHg 98%
    01:00 +5°C° 0.2 mm 1 m/S 590 mmHg 97%
    02:00 +5°C° 0.1 mm 1 m/S 590 mmHg 97%
    03:00 +5°C° 0.1 mm 1 m/S 590 mmHg 97%
    04:00 +5°C° 0.1 mm 1 m/S 589 mmHg 97%
    05:00 +5°C° 0.1 mm 1 m/S 590 mmHg 96%
    06:00 +6°C° 0.1 mm 1 m/S 590 mmHg 96%
    07:00 +6°C° 0.1 mm 1 m/S 590 mmHg 95%
    08:00 +6°C° 0.6 mm 1 m/S 591 mmHg 95%
    09:00 +6°C° 0.6 mm 1 m/S 591 mmHg 96%
    10:00 +6°C° 0.6 mm 1 m/S 591 mmHg 96%
    11:00 +6°C° 0.7 mm 1 m/S 591 mmHg 97%
    12:00 +6°C° 0.7 mm 1 m/S 591 mmHg 97%
    13:00 +5°C° 0.7 mm 2 m/S 591 mmHg 97%
    14:00 +5°C° 1.8 mm 1 m/S 591 mmHg 97%
    15:00 +5°C° 1.8 mm 1 m/S 591 mmHg 98%
    16:00 +4°C° 1.8 mm 1 m/S 591 mmHg 98%
    17:00 +4°C° 2.3 mm 1 m/S 591 mmHg 98%
    18:00 +4°C° 2.3 mm 1 m/S 591 mmHg 98%
    19:00 +3°C° 2.3 mm 1 m/S 591 mmHg 98%
    20:00 +3°C° 1.6 mm 1 m/S 591 mmHg 98%
    21:00 +3°C° 1.6 mm 1 m/S 591 mmHg 98%
    22:00 +3°C° 1.6 mm 1 m/S 591 mmHg 98%
    23:00 +3°C° 0.5 mm 1 m/S 591 mmHg 98%

    8 Juni, Montag

    Zeit Temperatur Niederschläge Wind Luftdruck Luftfeuchtigkeit
    00:00 +1°C° 0.5 mm 0 m/S 591 mmHg 98%
    01:00 +1°C° 0.5 mm 0 m/S 591 mmHg 98%
    02:00 +1°C° 0 mm 0 m/S 591 mmHg 97%
    03:00 +2°C° 0 mm 0 m/S 591 mmHg 97%
    04:00 +3°C° 0 mm 1 m/S 591 mmHg 97%
    05:00 +3°C° 0 mm 1 m/S 591 mmHg 97%
    06:00 +3°C° 0 mm 1 m/S 591 mmHg 97%
    07:00 +4°C° 0 mm 1 m/S 592 mmHg 97%
    08:00 +4°C° 0 mm 1 m/S 592 mmHg 95%
    09:00 +5°C° 0 mm 1 m/S 592 mmHg 94%
    10:00 +5°C° 0 mm 1 m/S 593 mmHg 92%
    11:00 +5°C° 0 mm 1 m/S 593 mmHg 91%
    12:00 +6°C° 0 mm 1 m/S 593 mmHg 91%
    13:00 +6°C° 0 mm 1 m/S 593 mmHg 90%
    14:00 +6°C° 0 mm 1 m/S 592 mmHg 88%
    15:00 +7°C° 0 mm 1 m/S 592 mmHg 86%
    16:00 +7°C° 0 mm 1 m/S 592 mmHg 85%
    17:00 +7°C° 0 mm 1 m/S 592 mmHg 86%
    18:00 +7°C° 0 mm 1 m/S 592 mmHg 87%
    19:00 +6°C° 0 mm 1 m/S 592 mmHg 89%
    20:00 +6°C° 0 mm 1 m/S 592 mmHg 91%
    21:00 +5°C° 0 mm 1 m/S 592 mmHg 93%
    22:00 +4°C° 0 mm 1 m/S 592 mmHg 95%
    23:00 +4°C° 0.1 mm 1 m/S 592 mmHg 95%

    9 Juni, Dienstag

    Zeit Temperatur Niederschläge Wind Luftdruck Luftfeuchtigkeit
    00:00 +4°C° 0.1 mm 1 m/S 592 mmHg 95%
    01:00 +4°C° 0.1 mm 1 m/S 592 mmHg 95%
    02:00 +4°C° 0 mm 1 m/S 592 mmHg 95%
    03:00 +4°C° 0 mm 1 m/S 592 mmHg 95%
    04:00 +4°C° 0 mm 1 m/S 592 mmHg 95%
    05:00 +5°C° 0 mm 1 m/S 592 mmHg 93%
    06:00 +6°C° 0 mm 1 m/S 593 mmHg 91%
    07:00 +6°C° 0 mm 1 m/S 593 mmHg 88%
    08:00 +7°C° 0.2 mm 1 m/S 594 mmHg 85%
    09:00 +8°C° 0.2 mm 1 m/S 595 mmHg 82%
    10:00 +9°C° 0.2 mm 1 m/S 595 mmHg 78%
    11:00 +9°C° 0.6 mm 1 m/S 595 mmHg 82%
    12:00 +9°C° 0.6 mm 1 m/S 595 mmHg 85%
    13:00 +9°C° 0.6 mm 1 m/S 594 mmHg 89%
    14:00 +8°C° 1.5 mm 1 m/S 594 mmHg 91%
    15:00 +8°C° 1.5 mm 1 m/S 594 mmHg 93%
    16:00 +7°C° 1.5 mm 1 m/S 593 mmHg 95%
    17:00 +7°C° 0.8 mm 1 m/S 593 mmHg 96%
    18:00 +7°C° 0.8 mm 1 m/S 593 mmHg 97%
    19:00 +6°C° 0.8 mm 1 m/S 593 mmHg 98%
    20:00 +6°C° 0.8 mm 1 m/S 593 mmHg 98%
    21:00 +6°C° 0.8 mm 1 m/S 593 mmHg 97%
    22:00 +6°C° 0.8 mm 1 m/S 593 mmHg 97%
    23:00 +5°C° 0.2 mm 0 m/S 593 mmHg 97%

    10 Juni, Mittwoch

    Zeit Temperatur Niederschläge Wind Luftdruck Luftfeuchtigkeit
    00:00 +4°C° 0.2 mm 0 m/S 593 mmHg 96%
    01:00 +4°C° 0.2 mm 0 m/S 593 mmHg 96%
    02:00 +4°C° 0.4 mm 0 m/S 593 mmHg 96%
    03:00 +4°C° 0.4 mm 0 m/S 592 mmHg 96%
    04:00 +4°C° 0.4 mm 0 m/S 592 mmHg 96%
    05:00 +5°C° 0.7 mm 0 m/S 593 mmHg 96%
    06:00 +5°C° 0.7 mm 0 m/S 593 mmHg 96%
    07:00 +5°C° 0.7 mm 0 m/S 593 mmHg 96%
    08:00 +6°C° 0.4 mm 0 m/S 593 mmHg 93%
    09:00 +7°C° 0.4 mm 0 m/S 594 mmHg 90%
    10:00 +9°C° 0.4 mm 1 m/S 595 mmHg 87%
    11:00 +9°C° 0.6 mm 1 m/S 595 mmHg 86%
    12:00 +10°C° 0.6 mm 1 m/S 595 mmHg 85%
    13:00 +10°C° 0.6 mm 1 m/S 595 mmHg 85%
    14:00 +10°C° 0.8 mm 1 m/S 595 mmHg 87%
    15:00 +8°C° 0.8 mm 2 m/S 595 mmHg 89%
    16:00 +8°C° 0.8 mm 2 m/S 595 mmHg 92%
    17:00 +7°C° 0.6 mm 2 m/S 595 mmHg 93%
    18:00 +8°C° 0.6 mm 1 m/S 594 mmHg 95%
    19:00 +7°C° 0.6 mm 1 m/S 594 mmHg 97%
    20:00 +7°C° 0.6 mm 1 m/S 595 mmHg 97%
    21:00 +6°C° 0.6 mm 1 m/S 595 mmHg 98%
    22:00 +6°C° 0.6 mm 1 m/S 595 mmHg 98%
    23:00 +6°C° 0.7 mm 1 m/S 595 mmHg 98%
    Mehr zeigen